Weather in Nyaksimvol'

Russia / Khanty-Mansi Autonomous Okrug — Yugra     62°25′36″N   60°51′38″E
temp.,
°C
wind,
m/s
gust,
m/s
humid.,
%
clouds,
%
prec.,
mm/h
press.,
hPa
HPBL,
m
7 march, sun
sun723:00−22w239265 0.0 100534
02:00−24w22930 0.0 100620
05:00−24wsw129324 0.0 100620
08:00−25wnw129289 0.0 100620
11:00−18w128492 0.0 1007251
14:00−14w127880 0.0 1007678
17:00−15w128490 0.0 1007629
20:00−21w119289 0.0 100720
8 march, mon
mon823:00−22nw119680 0.0 100820
02:00−21n119885 0.0 100720
05:00−23nnw129889 0.1 100720
08:00−24n229995 0.1 100721
11:00−19n129292 0.1 1006302
14:00−16ne1183100 0.1 1005682
17:00−16ene1288100 0.1 1005487
20:00−21ene2398100 0.1 100536
9 march, tue
tue923:00−23ne229898 0.1 100522
02:00−24n2299100 0.1 100542
05:00−25n2398100 0.1 1006106
08:00−26n2498100 0.1 100691
11:00−23n2395100 0.1 1007298
14:00−19nne2287100 0.1 1007526
17:00−19nne2390100 0.1 1008551
20:00−25nne229793 0.0 100920
10 march, wed
wed1023:00−28n239671 0.0 101134
02:00−30nnw2398100 0.0 101143
05:00−32nw129985 0.0 101219
08:00−33w119753 0.0 101119
11:00−25sw238440 0.0 1010270
14:00−19wsw258681 0.0 1009474
17:00−20w468274 0.1 1008608
20:00−27w22920 0.0 100820
11 march, thu
thu1123:00−26w119249 0.0 100819
02:00−28nw1193100 0.0 100719
05:00−29n229396 0.0 100719
08:00−31n229492 0.0 100719
11:00−24n128757 0.0 1008294
14:00−19nw018142 0.0 1008557
17:00−19ssw128471 0.0 1009442
20:00−22s2494100 0.0 100989